Dewpoint
47 32 35 36 36 34 33 27 21 33 31 26 25 26 22 27 34 27 26 29 27 29 31 28 31 41 31 34 36 40 40 40 34 32 40 56 63 64 64 61 62 63 66 66 66 70 70 71 71 70 70 70 70 70 70 70 70 71 71 72 72 72 72 72 72 72 72 71 72 72 71 71 71 71 71 70 69 69 69 69 70 70 69 70 70 69 69 67 66 65 64 63 61 61 62 62 63
39 31 37 35 33 33 27 27 24 26 27 23 26 26 23 25 31 25 24 27 28 32 34 28 31 39 39 38 39 40 38 40 49 55 59 62 63 64 65 62 62 63 65 66 65 68 68 70 71 71 70 70 70 69 69 69 70 71 71 72 72 72 72 72 72 72 71 71 72 71 71 71 71 70 70 69 69 69 69 70 69 70 70 69 69 69 68 67 66 65 65 63 62 61 62 62 63
38 31 30 30 25 27 29 25 19 20 22 18 19 25 27 24 23 25 24 26 31 38 34 33 33 33 35 35 34 36 33 51 51 55 61 64 62 64 63 63 62 64 65 66 66 67 67 69 71 71 70 70 70 69 69 70 71 71 71 72 71 71 72 72 71 71 71 72 71 71 71 70 70 70 69 69 69 70 70 69 69 69 69 68 68 67 67 67 66 66 65 64 62 61 62 62 63
37 39 33 22 20 31 21 23 22 19 20 18 17 26 25 24 22 23 25 29 32 31 28 30 29 31 32 31 32 36 35 38 51 53 59 63 61 63 62 63 64 65 66 66 66 66 67 69 71 71 70 70 69 69 69 70 70 71 71 72 72 72 72 71 71 71 71 72 71 71 70 70 70 70 69 69 70 70 69 69 69 68 68 67 67 67 67 67 67 66 65 64 63 61 62 63 62
29 37 37 23 23 19 25 23 20 19 15 16 16 21 24 24 23 25 25 25 27 28 27 29 30 34 35 34 40 33 37 50 54 58 61 63 64 64 63 64 64 65 66 66 65 66 67 70 71 70 70 70 69 69 69 69 70 70 71 71 72 71 71 71 71 71 71 72 71 71 70 70 70 69 69 70 70 70 70 69 68 68 68 67 67 67 67 67 67 66 65 64 63 61 61 62 62
27 29 32 27 13 27 22 17 18 18 18 19 15 17 17 19 23 24 24 24 24 24 24 25 28 32 35 34 40 35 46 40 56 58 62 62 64 64 63 65 64 65 66 66 66 66 67 70 70 70 70 70 69 69 69 68 70 70 71 71 72 71 71 71 71 71 71 71 71 70 70 70 70 69 69 69 69 70 69 69 68 68 67 67 67 67 67 67 67 66 65 64 63 61 61 61 62
25 23 21 18 21 25 20 17 15 16 15 17 15 15 19 20 21 23 24 22 24 24 26 25 28 34 33 41 43 46 51 54 57 59 61 64 65 63 64 64 65 65 65 66 66 66 68 70 70 70 70 70 70 69 69 68 70 70 70 71 72 71 71 71 71 71 71 71 70 70 70 69 69 70 70 69 69 69 69 69 68 67 67 67 66 67 67 68 67 66 65 64 63 61 61 61 62
39 26 25 23 23 18 17 17 18 19 19 19 20 19 21 24 22 22 21 21 21 22 24 24 27 33 32 41 35 51 53 55 59 60 62 63 64 64 64 63 64 65 65 65 66 67 70 70 70 70 70 70 70 69 69 68 68 70 71 71 71 71 71 71 71 71 71 70 70 70 70 70 70 70 70 69 69 70 69 69 69 69 68 66 67 68 69 68 67 66 65 64 63 62 60 60 62
26 19 29 27 25 22 17 15 13 20 19 21 20 25 32 27 23 23 23 24 24 24 23 23 26 26 27 28 30 47 51 56 58 61 63 64 64 65 63 63 63 65 65 64 66 68 70 70 70 69 70 70 70 69 69 69 69 70 71 71 71 71 71 71 71 71 70 70 70 70 70 70 70 70 70 69 69 68 68 69 69 69 68 66 67 69 69 68 66 65 64 63 63 62 61 61 63
22 19 22 29 28 23 21 19 14 14 15 17 18 19 21 25 22 22 21 20 22 22 22 23 28 25 26 26 24 39 52 58 61 61 64 64 64 64 63 63 63 65 65 65 66 67 69 71 70 69 69 70 70 69 69 69 69 70 70 71 71 71 71 71 71 70 70 70 70 70 71 71 70 70 70 70 69 68 67 68 68 68 66 66 67 68 68 67 66 63 61 61 64 63 62 62 64
15 20 29 23 25 26 24 20 19 12 8 13 14 16 17 20 20 20 21 20 21 20 21 24 25 25 26 26 27 47 51 60 60 60 64 64 65 64 63 64 64 64 64 67 67 68 70 70 71 69 69 69 69 69 69 69 70 70 70 70 70 71 70 70 71 70 70 71 71 71 71 70 70 70 70 69 69 68 68 68 67 67 66 66 67 67 67 65 63 63 61 61 63 65 63 63 65
15 20 26 28 26 26 25 23 20 13 7 8 6 14 19 17 19 17 18 19 20 20 20 24 22 25 27 26 28 39 45 56 61 62 64 64 64 64 64 64 65 65 64 67 68 67 69 69 70 71 69 69 69 68 69 69 70 70 69 69 70 70 70 70 70 70 70 70 70 70 70 70 69 69 69 69 68 68 69 69 69 67 66 66 67 66 65 64 63 62 61 62 63 66 64 64 65
25 27 19 27 28 26 26 21 22 18 14 10 9 7 16 18 16 15 15 17 18 19 19 21 27 24 21 25 33 32 49 58 61 63 64 64 64 65 65 64 65 65 64 67 67 67 69 69 68 69 70 69 68 68 68 69 70 70 70 69 69 70 70 70 70 70 70 70 70 70 69 69 69 69 69 68 68 68 69 68 68 68 67 67 67 66 65 64 63 62 61 61 63 66 65 63 65
23 28 22 24 23 25 26 25 24 19 20 17 9 13 16 13 16 15 16 14 14 16 18 19 23 23 21 23 29 34 49 59 62 65 65 65 65 65 66 65 66 65 66 66 66 67 68 69 67 67 70 71 71 69 68 68 69 70 69 69 69 70 70 70 70 70 70 70 70 69 69 69 69 69 69 69 68 68 67 67 67 68 67 68 68 67 66 64 63 62 61 62 63 66 65 64 65
21 31 19 23 22 22 23 26 25 25 24 14 10 7 12 16 14 17 15 13 10 18 16 21 25 21 21 21 22 36 43 54 63 65 65 64 65 65 66 66 66 66 65 65 65 66 67 70 68 68 68 69 69 71 69 70 68 69 69 69 69 69 69 69 69 69 69 69 69 69 69 69 69 69 69 68 67 67 67 67 67 67 68 68 68 68 67 65 64 64 65 64 64 66 65 65 66
34 24 24 22 22 21 23 21 25 24 24 18 10 10 8 9 13 10 12 13 11 13 16 13 21 19 20 20 23 34 41 59 63 64 64 65 66 66 66 66 64 64 65 64 65 66 67 68 69 69 69 68 68 69 70 70 68 68 68 68 68 68 68 68 68 68 68 68 67 68 68 69 69 69 69 69 67 66 67 66 66 66 67 69 69 68 68 67 66 66 66 65 67 66 65 65 67
34 39 17 18 22 22 24 20 21 22 21 15 8 8 15 18 11 11 15 15 11 10 13 14 17 24 19 23 33 46 52 61 63 64 64 64 65 64 65 65 65 64 66 64 64 65 67 67 68 68 69 69 69 69 68 70 70 68 68 67 67 67 68 67 67 66 66 65 66 66 67 68 67 67 68 67 67 68 65 64 65 65 66 68 69 69 68 68 68 67 66 66 67 66 67 68 67
25 18 20 23 22 23 22 21 21 20 19 11 8 7 18 24 9 9 12 11 11 12 12 13 14 16 20 23 35 47 57 63 63 63 63 63 64 63 63 64 65 65 64 64 65 64 65 66 67 68 68 68 69 69 70 70 70 69 69 70 70 69 68 67 69 70 69 69 65 68 67 66 66 66 67 67 67 67 66 64 64 64 65 66 69 69 68 68 68 68 67 67 67 67 67 65 66
18 16 17 23 24 24 20 19 18 17 18 11 9 8 10 21 22 12 15 14 10 9 10 11 10 12 14 18 28 45 61 62 63 63 63 63 63 63 63 64 64 65 65 65 65 65 66 65 66 67 68 68 69 69 70 70 69 70 70 69 69 67 68 70 69 69 69 68 69 67 66 65 66 66 66 67 67 63 66 63 63 64 64 65 68 68 68 67 68 68 68 68 67 67 65 63 61
18 17 17 16 19 17 16 18 22 15 20 16 11 11 8 14 13 17 18 23 15 16 17 13 10 12 14 25 44 56 61 62 63 63 63 63 64 63 63 63 64 64 65 65 66 67 67 66 66 66 67 68 68 68 69 69 69 70 69 69 69 69 69 69 68 69 68 69 69 68 66 66 66 66 68 69 69 67 67 62 62 63 63 64 66 68 67 66 67 67 67 67 67 66 63 62 61
21 15 15 19 14 14 14 15 17 20 14 13 14 15 9 9 9 12 14 17 25 19 19 23 24 18 25 33 42 55 59 61 61 62 62 63 63 64 63 64 63 64 65 65 65 66 67 67 66 66 67 68 68 68 68 68 69 70 69 69 70 69 69 69 68 69 69 69 69 68 67 67 68 67 67 67 67 66 65 66 66 65 65 65 65 66 65 66 66 66 66 67 65 64 63 62 63
22 11 11 10 11 13 10 12 16 16 18 13 13 11 14 18 13 10 10 15 21 27 19 19 22 25 30 32 37 54 57 59 60 61 62 63 63 63 64 63 64 63 65 64 65 66 66 67 67 66 67 67 68 68 68 68 69 69 70 69 70 70 70 69 69 69 69 70 69 69 68 68 67 67 67 67 67 65 65 65 65 64 64 64 65 64 64 63 64 64 64 64 63 63 62 63 62
15 14 14 12 9 9 8 11 22 17 18 14 16 20 15 20 18 13 11 13 17 25 33 25 21 25 26 31 41 48 54 57 60 60 61 63 63 63 63 63 62 62 63 64 65 65 66 67 67 67 67 67 67 67 67 67 68 69 69 69 70 69 70 70 69 69 69 69 69 69 68 68 68 67 67 67 67 66 66 65 65 64 64 63 63 63 63 63 63 63 63 63 63 63 63 63 62
24 17 16 15 13 8 15 17 21 15 16 18 23 21 19 19 17 26 15 12 13 14 17 37 41 33 34 28 34 40 47 55 59 60 62 63 63 63 63 62 61 62 62 63 62 64 65 66 67 67 67 67 67 67 67 67 67 68 69 69 69 68 69 69 70 69 69 69 69 69 68 68 67 67 67 67 67 67 66 66 65 64 64 63 63 63 63 62 62 62 63 63 62 63 63 63 62
22 20 22 19 18 18 24 19 19 19 18 20 23 25 24 23 18 22 15 21 22 22 27 31 36 38 35 35 32 36 45 49 56 59 61 61 63 62 62 61 62 62 62 63 63 63 65 65 66 67 67 67 67 67 67 67 67 68 68 69 69 67 69 69 69 69 69 69 69 69 68 68 68 67 67 67 66 67 67 66 66 65 65 64 64 63 63 63 62 62 62 62 62 62 62 63 62
22 20 23 21 19 20 22 23 19 17 17 19 16 16 23 26 30 25 25 17 24 31 34 35 33 31 39 38 35 35 39 45 51 55 57 59 60 60 61 60 61 61 62 62 63 62 63 65 65 66 66 67 67 67 67 67 67 67 67 68 69 68 68 70 70 69 69 69 69 69 69 68 68 67 67 67 67 66 67 67 66 66 65 65 64 63 63 62 62 62 62 62 61 61 61 61 62
22 25 26 23 22 26 26 22 23 27 21 20 17 19 20 29 23 14 25 22 24 33 33 36 35 30 32 38 41 39 40 41 47 50 54 56 56 58 59 60 60 60 61 62 62 63 63 64 65 65 66 66 67 67 67 66 67 67 67 67 68 69 67 68 71 71 70 70 69 69 69 69 69 69 67 67 67 67 68 67 65 64 65 65 64 64 63 63 63 62 63 62 62 61 61 60 61
25 24 24 25 28 29 26 26 24 24 17 22 20 22 21 22 26 18 21 33 27 29 35 35 34 28 25 30 34 37 40 39 38 46 48 52 52 53 55 58 59 59 60 61 62 62 62 63 64 64 65 65 66 66 66 66 66 67 67 67 68 69 69 67 67 70 70 70 70 69 70 69 68 69 68 68 67 67 66 67 66 64 63 64 64 64 64 63 63 63 64 64 64 63 62 61 61
26 24 17 18 23 22 25 23 25 25 18 21 22 15 10 15 19 23 25 26 29 33 32 32 35 34 28 27 32 31 29 33 34 36 43 44 46 51 50 54 57 58 59 59 60 61 62 63 62 64 64 66 66 65 65 65 66 66 67 67 67 68 69 69 68 66 67 70 70 70 69 69 69 69 68 69 68 67 66 66 66 65 63 63 64 65 65 65 64 64 63 64 65 64 63 62 62
26 25 21 20 19 15 22 27 27 23 18 22 18 2 2 5 11 24 24 29 25 24 20 18 20 22 25 27 29 30 30 31 31 35 34 39 43 46 48 51 54 55 55 56 58 59 61 62 63 63 64 65 65 65 65 65 65 66 66 66 66 67 66 67 68 68 67 67 68 69 70 68 68 69 67 68 68 67 67 67 67 66 64 64 64 64 65 65 64 64 64 65 63 63 63 63 62
19 23 24 18 16 12 17 20 26 23 31 27 17 6 1 11 21 33 29 29 27 17 15 16 20 23 23 24 26 27 31 31 33 35 40 44 45 42 44 46 50 52 52 54 55 57 58 60 62 62 62 64 64 65 65 65 65 65 65 65 65 66 65 65 65 66 67 67 67 68 69 68 68 67 68 67 67 67 66 66 66 66 66 65 64 64 64 64 64 64 65 64 64 64 64 64 65
22 16 15 18 15 15 15 20 24 18 26 33 19 9 3 5 8 31 33 33 29 19 14 16 19 21 24 23 24 23 26 30 37 38 39 39 41 36 39 40 42 48 49 50 53 54 55 58 59 60 61 61 63 64 65 65 65 65 65 64 65 66 65 65 65 64 64 65 66 67 68 69 69 68 67 68 67 67 66 65 65 66 66 66 65 65 65 64 64 64 64 64 64 64 64 64 64
19 15 16 16 17 16 16 25 23 19 26 28 25 10 16 8 20 30 31 29 29 27 19 16 22 25 26 26 28 28 28 27 31 32 38 38 39 40 40 40 42 43 45 46 49 51 52 54 56 58 59 60 61 63 64 65 65 65 65 65 66 65 65 65 65 64 64 65 64 64 66 67 68 69 69 67 67 66 65 65 66 65 66 66 66 65 65 64 64 64 64 64 64 65 64 64 64
18 18 15 16 11 11 10 17 20 26 23 19 23 21 16 15 17 21 30 26 27 20 18 20 23 22 23 24 25 24 24 26 26 27 35 39 37 41 41 39 39 42 43 45 46 47 49 51 53 54 56 58 59 60 62 64 64 65 65 65 65 66 65 64 64 64 64 64 64 64 65 65 65 67 68 68 67 67 67 66 66 66 66 66 66 66 65 65 64 64 64 64 64 63 63 64 63
16 17 16 17 14 12 12 12 20 19 18 22 19 17 16 17 20 20 23 29 24 20 21 21 21 21 23 25 26 26 27 27 28 29 35 38 39 40 40 39 38 41 42 42 45 47 47 48 50 51 52 55 57 58 60 61 63 65 65 65 66 66 65 64 64 65 65 65 64 65 65 65 66 67 67 66 67 67 67 67 67 67 67 66 66 65 65 65 64 64 64 64 64 63 63 63 63
19 18 17 16 15 15 13 16 15 18 12 14 17 14 14 16 18 19 19 22 21 20 20 22 23 23 24 25 25 25 27 27 31 35 38 38 37 38 36 37 38 40 43 42 41 44 45 46 48 48 49 50 53 55 56 57 59 61 63 65 65 64 65 64 65 65 65 65 65 66 66 66 65 66 67 68 67 66 67 67 66 67 67 66 66 65 65 65 65 64 64 64 63 62 62 63 63
22 21 20 19 18 19 21 21 19 23 15 14 14 14 14 14 16 17 18 19 19 18 17 18 19 22 24 24 24 24 24 23 32 33 35 36 41 41 39 37 37 37 39 41 39 39 40 42 45 46 47 48 48 49 52 54 55 58 60 62 63 63 63 64 64 65 64 64 65 65 66 66 66 66 66 67 67 66 67 67 67 66 66 66 65 65 65 65 65 65 64 64 63 62 63 64 64
24 23 22 20 21 20 23 22 22 24 21 18 18 18 18 19 18 19 19 19 18 17 17 17 16 16 18 20 21 21 21 27 31 33 33 33 30 33 35 40 38 34 34 36 37 37 37 39 41 43 45 46 46 47 47 50 53 54 56 58 61 62 63 63 63 64 64 64 65 65 66 65 66 66 65 66 66 67 67 67 66 67 67 65 65 65 65 63 64 64 64 64 63 62 61 63 64
24 22 20 20 20 22 23 24 25 25 23 19 19 18 20 20 20 20 20 20 19 19 18 17 17 17 17 18 19 19 20 21 21 21 29 28 31 33 31 30 37 37 35 37 37 37 37 37 38 39 41 43 44 45 45 46 49 52 54 56 59 60 61 62 62 63 64 64 64 65 64 65 65 65 65 65 66 66 67 66 65 65 67 66 65 65 64 64 64 64 63 62 61 62 62 64 65
23 21 19 16 19 18 15 21 23 25 21 19 19 18 20 21 22 21 22 21 21 25 25 23 22 20 19 18 18 19 19 20 20 19 19 19 24 26 27 28 29 35 36 35 36 37 36 35 35 36 37 39 41 43 45 45 46 49 52 53 56 58 58 60 62 62 63 63 63 64 64 64 64 65 64 65 65 66 66 66 65 65 65 66 65 65 64 64 64 63 63 63 62 60 62 62 63
23 23 21 18 20 22 21 19 22 24 24 25 21 21 18 20 23 24 23 21 24 24 24 24 23 25 24 25 25 23 20 20 20 20 21 20 20 22 24 26 30 31 33 33 37 38 40 37 36 36 36 37 38 40 43 43 43 44 45 49 52 54 57 57 59 60 61 61 61 62 63 64 63 64 64 64 64 65 66 66 66 66 65 65 65 64 63 63 62 63 63 63 62 60 60 61 62
20 23 23 23 23 23 23 23 22 20 19 20 22 14 13 19 25 24 22 22 21 21 22 22 22 22 22 21 22 23 25 25 23 22 23 24 25 25 26 28 29 32 31 33 36 35 34 34 35 36 36 35 36 38 39 41 41 40 40 40 42 45 47 52 53 54 59 60 60 61 62 63 63 63 63 64 64 64 65 65 65 65 65 65 65 64 63 63 63 63 62 62 62 62 60 58 58
10 7 15 19 21 23 23 21 21 15 12 17 22 11 6 16 19 22 25 26 24 22 22 21 21 21 21 22 22 21 22 23 25 25 24 25 25 26 27 27 29 29 29 31 32 32 34 34 34 35 35 35 38 37 39 39 40 40 41 41 41 41 43 47 51 52 54 57 61 60 61 62 62 62 62 63 63 64 64 65 65 65 65 65 64 64 64 63 63 63 63 62 62 61 61 58 55
10 21 18 19 18 21 22 20 17 14 16 19 21 17 11 10 15 21 20 24 26 23 19 20 20 19 19 20 20 22 22 22 24 24 24 25 26 27 27 29 29 29 30 32 33 33 31 30 33 33 34 34 36 39 38 39 39 40 41 42 41 41 43 44 49 52 54 55 56 59 61 60 61 61 61 62 62 63 63 64 64 64 64 64 64 64 64 64 63 63 62 62 62 60 59 57 53
15 22 25 21 20 21 21 19 18 18 18 15 16 16 14 12 17 19 19 23 24 25 23 19 19 21 20 19 21 23 24 25 24 26 26 26 27 28 28 29 30 30 32 33 33 33 33 32 31 30 31 33 34 36 38 38 39 39 40 41 41 41 43 45 46 51 53 55 56 56 58 59 60 60 61 61 61 62 62 63 64 64 64 64 62 63 63 63 63 63 62 61 60 57 55 54 53
21 26 26 26 26 24 23 19 19 17 17 14 17 18 11 10 14 18 18 17 16 16 14 13 14 21 21 23 23 22 22 24 25 24 25 26 27 28 30 30 30 30 32 33 32 33 34 34 33 32 31 30 32 34 36 38 39 40 39 41 41 41 41 42 45 46 50 52 54 55 55 56 58 59 59 60 61 61 62 62 63 63 63 63 62 62 62 62 62 61 60 59 57 56 56 55 54
28 26 24 22 18 18 22 20 18 15 11 14 18 18 15 9 12 11 12 12 11 12 12 15 19 23 22 22 20 21 20 22 23 24 24 25 27 28 30 30 30 30 31 31 32 32 33 34 34 33 32 31 31 32 35 36 38 40 40 41 42 42 42 42 43 45 45 49 50 52 54 54 54 55 57 58 60 60 61 61 61 62 62 61 61 62 62 61 61 60 59 59 58 56 55 56 56
26 22 20 18 18 16 15 13 17 9 4 9 15 17 17 10 9 16 12 11 9 8 9 11 17 21 22 20 19 18 18 20 21 22 23 24 25 27 29 29 29 30 30 29 30 31 32 33 33 34 34 33 32 32 33 35 36 39 41 41 41 42 42 43 42 42 44 47 49 49 52 53 54 55 54 56 58 59 60 60 61 61 61 61 61 61 61 60 59 58 57 57 57 56 56 56 56
23 21 20 15 6 5 -6 11 11 9 0 13 18 19 16 12 9 5 10 9 9 11 12 15 20 20 20 18 17 18 18 18 19 20 22 23 24 25 27 29 29 30 29 29 29 30 30 31 31 33 34 35 34 32 32 34 35 36 39 41 41 41 42 42 42 42 43 44 46 47 49 50 52 53 53 53 55 57 58 58 59 60 60 60 60 60 60 59 56 55 55 55 55 55 55 56 55
21 20 18 11 2 1 -5 -3 8 6 12 16 18 15 11 13 13 14 14 15 17 20 21 21 21 19 16 17 18 17 17 16 17 19 20 22 22 23 25 28 29 30 29 29 29 29 29 29 30 31 33 35 36 35 33 32 34 35 37 39 41 40 41 41 41 41 41 42 44 45 47 48 49 50 51 53 54 55 56 56 57 58 59 59 59 59 58 57 56 56 56 56 56 56 56 56 56
17 22 18 10 4 1 -2 -4 -5 -3 -2 12 17 15 13 15 13 13 12 13 14 15 16 17 17 16 16 15 14 13 13 12 15 16 18 20 22 23 24 26 29 30 29 30 29 29 29 29 29 30 31 33 36 37 36 33 32 34 35 37 39 40 40 40 40 41 41 42 42 43 44 46 47 48 50 51 52 54 55 56 57 57 57 57 56 57 57 55 56 57 56 56 55 56 56 56 57
20 20 19 11 7 6 -4 -1 4 5 3 4 12 13 14 8 13 11 9 9 9 11 11 12 11 11 14 12 13 12 12 12 13 14 15 17 21 23 24 25 28 30 30 30 30 30 30 29 28 29 29 31 34 37 38 36 34 33 34 35 37 39 40 40 41 41 40 41 42 42 43 44 44 46 48 49 51 52 53 54 55 56 57 58 57 56 55 55 56 56 55 56 56 58 56 56 57
13 19 15 13 22 16 7 9 13 13 6 3 10 6 7 8 11 9 7 6 4 5 6 6 7 9 10 11 12 11 13 14 13 13 13 14 19 22 24 24 26 29 30 30 30 30 30 29 29 28 28 30 32 34 37 38 37 34 34 34 36 38 39 40 40 40 40 40 41 41 42 42 44 44 46 48 49 50 51 52 53 54 55 56 56 56 56 56 55 55 54 55 55 56 56 57 56
21 16 16 21 23 23 16 9 10 11 8 7 9 8 5 4 7 8 7 5 4 3 3 4 6 7 7 10 11 12 14 14 13 12 13 13 17 20 23 25 25 28 30 30 30 30 31 30 29 28 28 29 30 32 36 38 38 37 35 35 35 36 37 40 40 40 40 40 40 41 41 41 42 43 44 46 47 47 49 48 51 52 53 54 55 55 56 55 55 54 54 54 54 54 55 55 56
17 17 23 15 8 12 16 14 6 5 4 5 7 7 6 7 6 13 7 4 3 4 4 4 3 4 6 7 8 11 12 14 13 10 11 12 14 17 21 23 25 27 30 31 31 31 31 30 30 28 28 28 30 32 34 36 38 39 38 36 36 36 36 37 39 40 41 41 40 40 40 40 41 43 42 45 45 46 47 47 48 49 51 52 54 54 55 54 54 53 53 53 54 54 54 54 55
17 16 13 19 14 11 7 13 11 5 3 0 2 6 2 4 3 12 6 5 5 4 5 3 3 4 4 6 7 8 12 12 12 10 11 11 13 15 19 23 24 27 30 31 31 32 31 31 30 29 28 28 30 32 32 34 37 39 39 38 37 36 36 38 38 39 39 40 40 40 40 41 42 42 42 44 44 45 46 46 47 48 49 50 52 53 54 54 53 52 52 52 52 53 53 54 54
13 14 11 14 13 15 14 13 12 8 3 1 -1 -3 2 -2 9 9 6 5 6 7 7 7 5 5 6 7 8 8 9 11 12 12 11 9 10 14 18 22 26 28 30 31 32 31 31 31 30 29 28 28 29 31 33 34 36 38 39 39 38 37 37 37 38 39 39 39 40 40 40 40 40 42 42 44 44 44 45 46 46 47 48 49 50 51 52 53 53 52 52 53 53 52 53 53 53
12 13 12 12 10 8 5 3 11 12 9 7 4 2 4 10 11 9 6 6 8 9 9 8 6 5 6 8 8 8 8 8 11 11 11 11 9 11 17 21 26 27 30 30 31 31 31 31 30 29 28 28 28 31 33 34 35 38 39 39 38 38 38 37 38 38 39 39 39 40 40 40 40 41 43 44 44 45 45 45 46 46 47 48 49 50 51 52 52 51 52 53 53 52 52 52 52